Temperature
23 24 26 27 27 26 25 23 23 23 24 24 24 24 25 25 25 25 24 24 24 24 23 23 22 21 21 21 20 20 20 19 19 19 18 18 17 17 17 17 17 17 16 16
24 25 25 26 26 27 26 26 25 25 24 23 24 25 25 25 24 24 24 24 24 24 23 23 22 22 21 21 20 20 19 19 19 18 18 17 17 17 17 17 17 16 16 16
21 23 24 24 25 26 26 25 25 24 24 23 23 23 24 24 24 24 24 24 24 24 23 23 22 22 21 21 20 19 19 19 18 18 18 17 17 17 17 17 16 16 16 16
19 23 23 22 24 25 25 24 23 24 23 23 24 25 26 26 26 25 25 25 25 24 23 23 22 22 21 20 20 19 19 19 18 18 17 17 17 17 17 16 16 16 16 16
18 20 21 23 24 25 24 23 22 22 23 23 24 24 24 25 26 26 26 26 25 24 24 23 22 21 21 20 19 19 19 19 18 18 17 17 17 17 16 16 16 16 15 15
18 20 21 21 23 25 23 22 22 22 21 22 23 21 22 25 25 26 26 25 25 24 23 23 22 21 21 20 19 19 19 18 18 18 17 17 17 16 16 16 15 15 15 15
18 19 19 21 23 23 22 21 21 22 22 23 22 22 23 24 25 25 25 24 24 23 23 22 22 21 20 20 19 19 19 18 18 17 17 17 16 16 16 15 15 15 14 14
16 18 19 20 21 20 19 21 21 22 22 22 22 23 23 23 24 24 24 23 23 22 22 22 21 20 20 19 19 18 18 17 17 17 16 16 16 15 15 15 15 14 14 14
16 17 18 19 19 20 21 21 21 21 22 22 22 22 22 22 22 23 22 22 21 21 21 20 20 20 19 19 18 18 17 17 17 16 16 16 15 15 15 15 14 14 14 13
15 16 17 19 20 20 20 20 21 21 22 22 22 21 21 21 21 21 21 21 21 20 20 20 19 19 19 18 18 17 17 16 16 16 15 15 15 15 14 14 14 14 13 13
15 15 17 18 18 19 19 20 20 21 21 21 21 21 21 21 20 20 20 20 20 20 19 19 18 18 18 17 17 17 16 16 15 15 15 15 14 14 14 14 14 13 13 13
14 15 15 16 18 18 19 19 19 20 20 20 20 20 20 19 20 19 19 19 19 19 18 18 18 17 17 17 16 16 16 16 15 15 14 14 14 14 13 13 13 13 13 12
17 17 17 17 18 18 18 18 19 19 19 19 19 19 19 19 18 18 18 18 18 18 17 17 17 16 16 16 16 16 16 15 15 14 14 14 13 13 13 13 12 12 12 12
17 17 17 17 17 17 17 17 18 18 18 18 18 18 18 18 17 17 17 17 17 17 16 16 16 16 16 16 15 15 15 14 14 14 14 13 13 13 13 12 12 12 11 11
17 17 16 16 17 17 17 17 17 17 17 17 17 17 17 17 16 17 17 16 16 16 16 16 15 15 15 15 15 14 14 14 14 13 13 13 12 12 12 12 12 11 11 11
16 16 16 16 16 16 16 16 16 16 16 16 16 16 16 16 15 15 15 15 15 15 15 15 15 15 14 14 14 14 13 13 13 13 13 12 12 12 11 11 11 11 11 10
16 15 15 15 15 15 15 15 15 16 16 15 15 15 15 15 15 14 14 14 14 14 14 14 14 14 14 14 13 13 13 13 12 12 12 12 11 11 11 11 11 10 10 10
15 15 15 15 15 15 15 15 15 15 15 15 15 15 15 14 14 14 14 13 13 13 13 13 13 13 13 13 13 12 12 12 12 11 11 11 11 11 10 10 10 10 10 10
15 15 15 15 15 15 15 15 15 14 14 14 14 14 14 13 13 13 13 13 13 13 13 13 13 12 12 12 12 12 12 11 11 11 11 11 11 10 10 10 10 10 9 9
14 14 14 14 14 14 14 14 14 14 14 13 13 13 13 13 13 12 12 12 12 12 12 12 12 12 12 12 11 11 11 11 11 11 11 11 10 10 10 10 10 9 9 9
13 13 13 13 13 13 13 14 14 13 13 13 13 13 12 12 12 12 12 12 12 12 12 12 12 12 11 11 11 11 11 11 11 11 10 10 10 10 10 9 9 9 9 9
12 12 12 12 12 13 13 13 13 13 12 12 12 12 12 12 12 12 12 12 12 12 11 11 11 11 11 11 11 11 11 11 10 10 10 10 10 10 10 9 9 9 9 9
11 11 11 11 12 12 12 12 12 12 12 12 12 12 12 12 12 12 11 11 11 11 11 11 11 11 11 11 11 10 10 10 10 10 10 10 10 10 9 9 9 9 9 9
11 11 11 11 11 11 11 11 11 11 11 11 11 11 11 11 11 11 11 11 11 11 11 11 10 10 10 10 10 10 10 10 10 10 10 10 10 9 9 9 9 9 8 8
10 10 10 10 11 11 11 11 11 11 11 11 11 11 11 11 11 11 11 10 10 10 10 10 10 10 10 10 10 10 10 10 10 10 10 9 9 9 9 9 9 8 8 8
9 10 10 10 10 10 10 10 10 10 10 10 10 10 10 10 10 10 10 10 10 10 10 10 10 10 10 10 10 9 9 9 9 9 9 9 9 9 8 8 8 8 8 8
9 10 10 10 10 10 10 10 10 10 10 10 10 10 10 10 10 10 10 10 9 9 9 9 9 9 9 9 9 9 9 9 9 9 9 9 8 8 8 8 8 8 8 8
Wind_Speed
6 5 2 1 4 3 3 8 9 10 11 12 12 12 12 11 11 13 12 12 12 11 10 10 10 9 9 9 8 8 8 7 6 5 5 5 5 4 4 4 4 3 4 3
1 2 2 3 5 5 4 3 5 5 8 9 8 7 9 12 15 14 14 13 12 12 11 12 12 11 10 9 9 8 8 7 6 6 6 5 5 5 5 5 4 5 4 4
0 3 5 3 4 3 4 4 3 6 8 5 5 9 13 14 15 15 16 15 14 13 13 12 12 11 11 10 9 9 8 7 7 6 6 5 5 5 5 4 5 5 4 4
2 3 4 9 5 1 0 4 3 1 3 8 9 9 8 10 14 14 14 14 14 13 12 10 9 9 10 9 9 9 8 7 7 6 6 5 6 6 5 4 4 4 4 4
4 3 5 7 5 2 1 4 6 2 2 2 3 4 2 3 9 13 14 12 11 11 11 11 11 11 11 10 8 8 8 7 7 7 7 6 6 5 5 5 4 3 3 4
4 4 5 6 6 4 4 2 6 3 3 3 5 4 3 3 4 6 8 9 10 11 11 11 11 12 12 10 9 8 8 7 7 7 7 7 6 5 4 5 4 4 4 3
4 4 6 6 6 5 2 5 5 2 2 3 3 4 3 2 4 6 7 9 11 12 11 10 11 12 11 9 8 8 7 7 7 7 7 7 6 4 5 5 5 4 4 3
5 4 7 6 4 2 4 3 2 3 4 4 4 4 5 5 6 7 8 9 10 10 9 8 10 11 10 8 7 7 8 7 7 7 7 6 7 5 5 6 6 4 4 3
6 6 4 2 2 1 2 2 2 2 3 5 6 5 5 5 6 7 9 8 8 10 9 8 8 9 10 7 8 8 8 8 7 7 6 6 6 6 5 5 4 4 4 3
3 3 3 5 6 7 5 3 3 4 5 6 6 6 6 6 6 7 7 8 8 9 9 8 7 7 7 7 8 9 9 8 7 7 6 5 4 4 5 4 4 4 4 4
2 2 5 9 8 7 7 7 7 7 6 5 7 6 6 6 6 6 6 5 7 9 9 8 8 7 7 7 8 8 8 7 7 6 7 6 4 3 3 2 3 5 5 5
2 2 1 3 4 6 7 6 6 7 7 6 6 6 6 5 5 5 5 5 7 7 8 7 7 7 5 6 8 9 7 7 6 6 6 6 6 4 6 4 3 2 4 5
3 2 2 2 3 4 4 4 4 6 6 5 5 5 5 4 4 5 5 5 6 7 7 7 7 6 4 5 6 7 7 7 5 6 6 6 6 6 4 3 6 6 4 5
1 2 2 2 2 4 3 3 4 5 5 5 4 5 4 4 4 5 5 5 6 7 6 6 6 5 4 5 6 6 6 6 6 5 5 5 5 5 5 5 3 1 3 3
1 2 3 1 2 3 3 3 4 3 3 4 4 4 4 4 3 3 4 6 7 7 6 6 6 4 3 5 6 6 5 5 5 5 5 5 5 4 4 5 4 3 2 2
1 2 3 3 3 3 3 3 2 1 2 2 3 3 4 4 3 3 4 5 6 6 5 5 4 3 4 5 6 5 4 7 6 5 4 4 4 5 4 4 4 4 4 3
1 1 1 0 1 1 1 1 0 1 1 2 3 4 4 5 4 3 3 4 5 5 5 5 4 3 4 5 5 5 4 5 7 5 4 5 5 5 5 5 5 4 4 5
3 4 4 4 3 2 2 2 1 1 2 3 4 4 5 5 5 4 3 3 4 3 2 3 4 4 4 4 4 4 4 4 4 4 4 4 4 4 4 5 5 5 3 4
1 1 0 1 2 2 2 2 2 2 2 3 5 5 5 5 5 4 4 4 4 3 3 3 5 4 4 4 4 4 4 5 4 4 4 5 5 4 4 4 4 4 4 4
3 2 2 2 2 1 1 1 2 2 2 3 4 4 4 4 5 5 5 4 4 4 5 5 4 3 3 3 4 3 4 5 5 4 4 4 4 4 4 4 5 5 4 4
4 3 3 2 1 1 0 1 1 2 2 3 5 5 5 4 4 4 4 2 2 3 4 6 4 3 3 3 4 4 4 5 5 5 5 5 5 4 4 5 5 4 4 4
3 2 2 1 2 2 2 1 1 2 2 2 3 4 4 4 3 3 3 3 2 4 4 3 3 4 4 4 3 4 4 4 4 4 4 5 5 5 5 5 5 4 4 4
2 1 1 1 1 1 2 2 2 3 3 3 3 4 4 4 3 4 2 1 2 5 4 3 4 6 5 3 3 3 3 4 4 4 4 4 4 4 4 4 4 4 4 4
2 1 1 1 2 3 3 2 3 3 4 4 3 4 4 4 2 2 3 5 6 6 4 4 6 6 5 3 3 3 3 3 3 3 3 3 3 3 3 3 3 3 3 3
2 1 1 2 2 2 2 3 4 4 5 4 4 4 3 3 4 3 4 4 6 6 4 5 6 5 3 3 3 3 3 3 3 3 3 3 3 2 2 2 2 3 3 3
1 1 1 1 2 2 2 3 3 3 3 4 4 3 3 3 4 4 4 4 5 5 4 3 3 3 3 4 4 4 3 3 3 3 3 3 2 2 2 2 2 2 2 2
3 2 3 3 4 3 3 3 4 3 3 4 4 3 4 4 4 4 4 4 3 3 3 2 2 3 3 4 4 4 3 3 3 3 3 3 3 2 2 2 2 1 1 1
Wind_Direction
193 201 168 272 297 286 195 189 191 221 203 214 204 194 184 174 169 163 166 169 170 171 168 161 159 159 158 155 153 150 148 152 159 154 145 145 143 138 128 121 120 111 101 89
41 26 41 331 304 305 281 227 210 213 229 231 208 179 169 170 171 170 171 175 175 170 166 164 164 163 158 155 156 151 152 155 150 138 135 135 134 128 119 113 104 97 96 95
278 2 42 301 264 280 293 292 200 214 233 217 175 180 181 177 174 174 174 175 175 174 171 169 166 160 156 156 150 148 149 147 144 139 138 142 138 123 121 120 113 105 100 100
113 74 223 245 262 259 351 350 336 247 206 183 186 192 184 174 170 173 175 174 173 171 165 159 153 147 145 143 144 145 144 145 144 140 139 134 129 128 123 118 117 115 111 107
114 160 272 296 316 349 86 353 352 40 88 147 143 92 28 198 173 176 177 172 166 162 155 150 150 147 139 140 143 145 151 153 152 146 144 140 138 140 133 124 116 112 110 107
125 157 220 253 296 311 90 351 331 30 74 91 98 122 238 240 171 163 157 152 147 143 137 144 148 142 139 145 148 155 159 156 152 149 148 149 147 141 135 129 129 126 114 112
161 202 251 271 312 22 97 240 303 24 68 104 132 183 205 135 126 134 131 137 140 140 143 148 145 140 142 147 156 155 146 142 144 145 144 144 141 138 138 136 129 124 118 106
160 189 253 305 23 105 212 242 332 45 66 79 85 87 86 95 105 111 116 120 128 132 134 136 140 140 142 150 149 141 139 137 138 141 145 145 142 142 140 140 136 133 126 106
183 203 247 345 105 190 151 79 31 52 85 102 91 82 89 89 94 102 110 115 119 124 124 125 134 140 143 147 141 137 136 137 137 135 132 141 146 147 141 140 144 146 145 146
59 26 11 27 37 23 20 40 55 81 93 99 99 98 97 96 94 97 103 114 121 124 126 129 129 130 137 142 141 137 139 141 141 136 131 126 129 139 147 155 160 161 161 161
56 348 16 14 16 11 12 27 43 51 57 87 108 106 105 103 104 103 104 111 124 129 133 133 130 127 129 135 137 138 142 143 141 137 135 123 109 97 133 148 180 179 181 175
207 237 161 290 334 11 26 31 38 59 50 55 91 106 104 104 105 109 115 116 118 118 123 125 123 119 128 141 142 142 145 148 148 144 140 138 133 101 56 71 79 126 165 162
182 212 203 244 358 14 16 27 48 65 69 60 61 91 101 109 112 113 114 119 126 126 127 124 120 118 125 135 139 143 147 151 153 153 154 156 155 152 140 69 62 66 103 147
151 92 32 4 18 8 10 24 47 66 74 83 83 82 90 102 112 118 126 131 125 118 118 120 118 120 124 129 136 142 142 145 149 156 157 161 163 163 160 157 143 75 52 107
275 155 171 169 51 25 8 37 48 43 65 69 89 103 105 112 117 123 128 124 117 114 117 120 119 125 127 132 138 142 142 148 152 153 154 158 155 152 149 151 148 143 118 79
201 110 97 68 36 6 5 32 48 72 101 101 113 125 133 131 131 130 129 129 128 133 135 130 134 150 142 138 142 146 151 150 151 153 155 157 157 155 156 157 156 158 166 171
175 149 124 94 325 329 319 313 195 190 158 146 145 140 125 116 114 128 138 130 133 143 145 146 158 160 147 148 154 158 158 159 153 149 158 165 165 166 167 166 168 170 181 182
211 199 185 185 197 229 248 238 200 183 195 183 157 150 147 144 147 158 160 134 122 121 145 166 163 152 150 157 159 157 158 159 157 160 161 161 164 166 166 168 170 170 172 176
54 95 137 206 211 216 213 208 204 205 199 166 157 158 158 161 156 158 152 149 157 174 206 186 159 153 157 164 154 154 158 156 153 155 157 156 154 159 163 165 168 174 179 181
26 9 357 342 335 284 219 218 208 194 192 168 149 146 152 167 163 159 156 174 199 201 189 170 160 160 161 164 155 154 158 161 160 160 158 157 160 164 167 169 171 174 181 192
341 343 352 356 352 13 66 154 152 176 189 174 161 165 173 178 169 159 157 179 236 185 159 154 152 155 151 150 145 149 157 160 162 164 168 170 171 174 176 177 181 186 192 200
316 321 340 13 65 29 4 27 114 139 144 144 149 147 151 151 146 145 158 175 182 151 142 142 141 145 140 132 130 139 151 158 164 168 172 174 175 179 186 190 193 198 202 206
335 343 25 54 75 52 28 40 78 105 113 125 141 149 151 148 148 148 150 164 136 128 121 130 136 127 115 107 116 131 146 154 161 165 169 174 177 178 183 192 195 195 199 206
359 357 2 84 76 69 56 50 75 93 103 102 104 117 127 121 96 99 129 129 128 120 109 116 117 110 99 89 107 115 124 142 153 156 159 166 170 168 169 176 185 192 195 201
358 356 66 91 92 93 89 81 79 76 77 76 81 87 96 119 131 130 117 118 124 113 104 108 108 102 95 93 98 98 99 114 128 133 137 144 153 162 169 170 178 186 193 207
358 41 110 122 123 118 107 97 92 88 93 87 74 75 83 90 100 102 106 115 116 111 107 104 99 94 94 93 92 91 91 92 96 103 112 118 120 120 119 119 134 156 182 191
27 55 73 73 71 83 94 99 99 94 97 101 92 77 79 84 89 93 97 103 107 107 110 108 102 100 96 92 88 82 81 86 90 93 93 96 103 108 111 117 124 125 114 100
Height
1495 1491 1489 1490 1491 1491 1498 1505 1513 1508 1503 1495 1489 1488 1489 1493 1496 1499 1502 1505 1508 1511 1513 1516 1519 1521 1523 1525 1527 1528 1529 1530 1531 1531 1532 1532 1532 1533 1534 1534 1535 1535 1535 1535
1493 1488 1487 1490 1488 1488 1489 1491 1495 1495 1494 1483 1482 1485 1487 1490 1493 1496 1498 1502 1505 1508 1511 1514 1516 1519 1521 1524 1526 1527 1528 1529 1530 1530 1531 1531 1532 1532 1533 1533 1534 1534 1534 1534
1505 1493 1492 1501 1490 1488 1488 1486 1488 1494 1489 1481 1483 1483 1484 1487 1489 1492 1495 1498 1502 1506 1509 1512 1515 1517 1520 1522 1524 1526 1527 1528 1529 1529 1530 1531 1532 1532 1533 1533 1533 1533 1533 1533
1507 1502 1513 1500 1482 1481 1484 1485 1482 1480 1478 1477 1478 1479 1481 1483 1485 1489 1492 1495 1498 1502 1506 1510 1513 1516 1519 1521 1523 1524 1525 1527 1528 1529 1529 1530 1531 1531 1532 1532 1532 1532 1532 1532
1514 1515 1508 1492 1481 1481 1485 1489 1482 1480 1478 1477 1478 1480 1483 1484 1485 1486 1489 1492 1496 1500 1503 1507 1510 1513 1516 1519 1521 1523 1524 1525 1526 1527 1528 1529 1529 1530 1531 1531 1531 1531 1531 1531
1510 1513 1515 1497 1481 1477 1481 1493 1483 1479 1478 1478 1478 1487 1486 1483 1484 1486 1488 1491 1494 1498 1502 1505 1508 1511 1514 1516 1518 1520 1521 1523 1524 1525 1527 1527 1528 1529 1529 1530 1530 1530 1530 1531
1508 1511 1503 1487 1480 1478 1497 1497 1484 1480 1478 1478 1479 1482 1482 1482 1484 1485 1487 1490 1493 1496 1499 1502 1505 1508 1511 1513 1515 1518 1520 1521 1522 1524 1525 1526 1527 1527 1528 1529 1529 1529 1530 1530
1508 1512 1508 1484 1482 1488 1490 1484 1483 1480 1478 1478 1479 1480 1480 1481 1483 1484 1487 1490 1492 1495 1498 1501 1504 1507 1509 1511 1514 1516 1518 1519 1520 1522 1523 1524 1525 1526 1526 1527 1528 1528 1528 1528
1498 1500 1490 1485 1485 1485 1484 1483 1483 1482 1480 1480 1480 1481 1482 1483 1483 1485 1487 1490 1493 1496 1498 1501 1504 1506 1508 1510 1512 1514 1516 1517 1518 1520 1521 1522 1523 1524 1524 1525 1526 1526 1527 1527
1493 1492 1489 1487 1486 1486 1486 1484 1483 1482 1481 1482 1483 1484 1484 1484 1485 1486 1488 1491 1493 1496 1498 1500 1502 1505 1506 1508 1510 1512 1513 1515 1516 1517 1519 1520 1521 1522 1522 1523 1524 1524 1525 1525
1494 1492 1489 1489 1489 1489 1487 1486 1484 1483 1483 1483 1483 1485 1486 1486 1487 1488 1489 1491 1493 1495 1497 1499 1501 1503 1505 1507 1509 1510 1512 1513 1514 1515 1516 1518 1519 1520 1520 1521 1522 1522 1523 1523
1496 1493 1493 1492 1491 1490 1488 1488 1486 1484 1484 1485 1485 1486 1487 1488 1488 1489 1491 1492 1494 1495 1497 1498 1499 1501 1503 1505 1506 1508 1509 1511 1512 1513 1514 1516 1516 1517 1518 1519 1519 1520 1520 1521
1491 1491 1492 1491 1491 1490 1490 1489 1488 1485 1485 1486 1486 1487 1487 1489 1489 1490 1490 1492 1493 1494 1495 1497 1498 1499 1501 1503 1504 1505 1507 1508 1510 1511 1512 1513 1514 1514 1515 1516 1517 1517 1518 1518
1491 1491 1491 1491 1489 1489 1490 1489 1488 1486 1486 1486 1486 1487 1488 1489 1489 1489 1490 1491 1492 1493 1494 1496 1497 1498 1500 1501 1502 1504 1505 1506 1507 1508 1509 1510 1511 1512 1513 1513 1514 1514 1516 1516
1489 1489 1489 1489 1488 1488 1488 1488 1487 1487 1486 1486 1486 1487 1488 1489 1489 1489 1490 1490 1491 1492 1493 1494 1496 1497 1498 1499 1501 1502 1503 1504 1505 1506 1507 1508 1509 1509 1510 1511 1512 1512 1513 1514
1486 1487 1487 1487 1486 1486 1486 1485 1486 1485 1485 1486 1486 1487 1487 1488 1488 1488 1489 1489 1490 1491 1492 1493 1494 1495 1496 1497 1499 1500 1501 1502 1503 1503 1504 1505 1506 1507 1508 1509 1509 1510 1511 1512
1483 1483 1484 1484 1485 1485 1485 1485 1484 1484 1484 1484 1484 1485 1486 1486 1487 1488 1488 1488 1489 1490 1490 1491 1492 1493 1494 1496 1497 1498 1499 1500 1501 1501 1502 1503 1504 1504 1505 1506 1507 1508 1509 1510
1480 1481 1481 1481 1482 1482 1482 1482 1482 1482 1482 1482 1483 1483 1484 1484 1484 1486 1488 1487 1488 1488 1489 1490 1491 1492 1492 1493 1495 1496 1497 1498 1499 1499 1500 1501 1502 1503 1503 1504 1505 1506 1507 1508
1477 1478 1478 1479 1478 1478 1478 1478 1478 1479 1479 1479 1480 1480 1481 1481 1482 1484 1485 1486 1487 1487 1488 1488 1489 1490 1491 1492 1493 1494 1495 1496 1497 1498 1499 1500 1500 1501 1502 1502 1503 1504 1505 1506
1475 1475 1475 1475 1475 1475 1474 1474 1475 1475 1475 1476 1477 1477 1478 1479 1480 1482 1483 1484 1485 1485 1486 1487 1488 1489 1490 1491 1492 1493 1494 1495 1496 1497 1498 1498 1499 1499 1500 1501 1501 1502 1503 1504
1472 1472 1472 1472 1472 1471 1472 1472 1471 1471 1472 1473 1473 1474 1476 1477 1478 1479 1480 1481 1482 1483 1484 1485 1486 1487 1488 1490 1491 1492 1493 1494 1495 1495 1496 1497 1497 1498 1499 1499 1500 1500 1501 1502
1470 1469 1469 1469 1469 1469 1469 1469 1469 1469 1469 1470 1471 1472 1474 1475 1476 1478 1479 1480 1481 1482 1482 1483 1484 1486 1487 1488 1489 1490 1491 1492 1493 1494 1495 1495 1496 1497 1497 1498 1498 1499 1499 1500
1467 1467 1467 1467 1467 1467 1467 1467 1467 1467 1468 1468 1469 1471 1472 1473 1475 1476 1477 1479 1480 1480 1481 1482 1483 1485 1486 1487 1488 1489 1490 1491 1492 1493 1494 1494 1495 1496 1496 1497 1497 1498 1498 1499
1466 1465 1465 1466 1466 1466 1466 1466 1466 1467 1468 1468 1469 1471 1472 1473 1474 1476 1477 1478 1479 1480 1481 1482 1483 1485 1486 1487 1488 1489 1490 1491 1491 1492 1493 1494 1494 1495 1495 1496 1496 1496 1497 1497
1465 1465 1465 1465 1465 1466 1466 1466 1467 1468 1469 1469 1470 1471 1473 1474 1475 1476 1477 1478 1479 1480 1481 1482 1483 1485 1486 1487 1488 1488 1489 1490 1491 1492 1493 1493 1494 1494 1495 1495 1495 1495 1495 1496
1465 1465 1465 1465 1466 1466 1467 1467 1468 1469 1470 1470 1472 1473 1474 1475 1476 1476 1477 1479 1480 1481 1481 1482 1483 1484 1486 1487 1487 1488 1489 1490 1491 1492 1492 1493 1493 1494 1494 1494 1493 1494 1494 1494
1467 1467 1467 1467 1467 1468 1468 1469 1470 1471 1472 1473 1474 1475 1476 1477 1477 1478 1479 1480 1481 1482 1482 1483 1484 1485 1486 1487 1488 1488 1489 1490 1491 1491 1492 1492 1492 1493 1493 1493 1493 1493 1492 1492